Location: Assche-ter-Heiden
(50.9174°N, 4.1574°E)
Time: 01:26:25
(UTC+00:00)

SMAP - Pass Details

Date: 20 January 2020
Orbit: 681 x 683 km, 98.1° (Epoch: 28 February)

Event Time Altitude Azimuth Distance (km) Brightness Sun altitude
Rises 06:41:50 0° 11° (N) 3,059 6.3 -8.4°
Reaches altitude 10° 06:44:07 10° 7° (N) 2,138 5.5 -8.1°
Maximum altitude 06:48:41 55° 290° (WNW) 827 3.2 -7.4°
Drops below altitude 10° 06:53:12 10° 214° (SSW) 2,122 5.5 -6.8°
Sets 06:55:28 0° 210° (SSW) 3,032 6.3 -6.4°
